Weather reports worldwide

Advertisment
Catania/Sigonella, Italy (16459): temperature & dewpoint: 19.03.2019 07:00:00 - 25.03.2019 07:00:00 (CET)Catania/Sigonella, Italy (16459): wind speed: 19.03.2019 07:00:00 - 25.03.2019 07:00:00 (CET)Catania/Sigonella, Italy (16459): wind direction: 19.03.2019 07:00:00 - 25.03.2019 07:00:00 (CET)Catania/Sigonella, Italy (16459): reduced air pressure: 19.03.2019 07:00:00 - 25.03.2019 07:00:00 (CET)Catania/Sigonella, Italy (16459): visibility: 19.03.2019 07:00:00 - 25.03.2019 07:00:00 (CET)
Date & Time tt [°C] td [°C] ff [km/h] ff [kn] dd ppp [hPa] vv [km]
25.03.2019 07:00:00 5,8 5,8 5 3 W 1019,4 10
25.03.2019 06:00:00 5,0 5,0 5 3 WSW - 10
25.03.2019 05:00:00 6,0 6,0 9 5 WSW - 10
25.03.2019 04:00:00 6,4 6,4 8 4 W 1019,6 10
25.03.2019 03:00:00 8,0 8,0 9 5 WNW - 10
25.03.2019 02:00:00 9,0 8,0 9 5 WNW - 10
25.03.2019 01:00:00 9,8 9,2 11 6 WNW 1020,5 10
25.03.2019 00:00:00 10,0 10,0 15 8 WNW - 10
24.03.2019 23:00:00 11,0 10,0 13 7 WNW - 10
24.03.2019 22:00:00 11,8 9,5 15 8 W 1021,4 10
24.03.2019 21:00:00 13,0 9,0 9 5 WNW - 10
24.03.2019 20:00:00 13,0 7,0 4 2 SSE - 10
24.03.2019 19:00:00 14,0 5,4 9 5 E 1020,8 10
24.03.2019 18:00:00 16,0 6,0 13 7 E - 10
24.03.2019 17:00:00 18,0 6,0 21 11 E - 10
24.03.2019 16:00:00 19,0 4,0 26 14 E 1020,9 10
24.03.2019 15:00:00 20,0 6,0 24 13 E - 10
24.03.2019 14:00:00 20,0 5,0 24 13 E - 10
24.03.2019 13:00:00 22,0 3,7 5 3 NNW 1021,9 10
24.03.2019 12:00:00 21,0 4,0 8 4 WSW - 10
24.03.2019 11:00:00 20,0 6,0 5 3 WSW - 10
24.03.2019 10:00:00 17,0 7,9 11 6 WNW 1022,9 10
24.03.2019 09:00:00 13,0 9,0 11 6 W - 8
24.03.2019 08:00:00 10,0 9,0 11 6 W - 8
24.03.2019 07:00:00 5,4 5,4 9 5 WSW 1023,0 7
24.03.2019 06:00:00 6,0 6,0 9 5 W - 8
24.03.2019 05:00:00 5,0 5,0 11 6 W - 8
24.03.2019 04:00:00 6,0 6,0 9 5 W 1022,1 10
24.03.2019 03:00:00 6,0 6,0 11 6 W - 10
24.03.2019 02:00:00 7,0 7,0 11 6 W - 10
24.03.2019 01:00:00 9,0 9,0 11 6 W 1022,4 10
24.03.2019 00:00:00 9,0 9,0 13 7 WNW - 10
23.03.2019 23:00:00 8,0 8,0 9 5 W - 10
23.03.2019 22:00:00 8,0 8,0 11 6 W 1022,4 10
23.03.2019 21:00:00 11,0 11,0 2 1 NE - 10
23.03.2019 20:00:00 12,0 12,0 2 1 ENE - 10
23.03.2019 19:00:00 12,0 12,0 5 3 E 1020,7 10
23.03.2019 18:00:00 13,0 11,0 11 6 E - 10
23.03.2019 17:00:00 15,0 11,0 16 9 E - 10
23.03.2019 16:00:00 16,0 11,2 18 10 E 1020,4 10
23.03.2019 15:00:00 16,0 11,0 21 11 E - 10
23.03.2019 14:00:00 17,0 9,0 5 3 E - 10
23.03.2019 13:00:00 16,6 8,1 24 13 E 1021,4 10
23.03.2019 12:00:00 17,0 8,0 26 14 E - 10
23.03.2019 11:00:00 18,0 8,0 21 11 ESE - 10
23.03.2019 10:00:00 17,0 9,7 9 5 ESE 1021,6 10
23.03.2019 09:00:00 15,0 9,0 4 2 WSW - 10
23.03.2019 08:00:00 12,0 8,0 8 4 W - 10
23.03.2019 07:00:00 9,6 7,4 9 5 NW 1021,6 10
23.03.2019 06:00:00 9,0 9,0 8 4 NW - 10
23.03.2019 05:00:00 9,0 9,0 4 2 W - 10
23.03.2019 04:00:00 10,8 9,1 8 4 ESE 1021,5 11
23.03.2019 03:00:00 14,0 9,0 21 11 E - 10
23.03.2019 02:00:00 14,0 10,0 21 11 ENE - 10
23.03.2019 01:00:00 11,2 11,2 11 6 ESE 1022,3 10
23.03.2019 00:00:00 11,0 11,0 13 7 ESE - 10
22.03.2019 23:00:00 13,0 13,0 9 5 E - 10
22.03.2019 22:00:00 13,4 12,6 15 8 E 1022,4 10
22.03.2019 21:00:00 14,0 12,0 22 12 E - 10
22.03.2019 20:00:00 14,0 10,0 22 12 E - 8
22.03.2019 19:00:00 13,8 9,5 24 13 ENE 1021,8 8
22.03.2019 18:00:00 14,0 10,0 29 16 ENE - 8
22.03.2019 17:00:00 14,0 12,0 31 17 ENE - 8
22.03.2019 16:00:00 14,4 11,9 29 16 ENE 1022,6 8
22.03.2019 15:00:00 15,0 12,0 34 18 ENE - 8
22.03.2019 14:00:00 15,0 11,0 39 21 ENE - 8
22.03.2019 13:00:00 15,6 9,5 44 24 ENE 1022,6 8
22.03.2019 12:00:00 17,0 10,0 46 25 ENE - 8
22.03.2019 11:00:00 16,0 11,0 41 22 E - 8
22.03.2019 10:00:00 15,0 11,4 42 23 ENE 1023,3 8
22.03.2019 09:00:00 14,0 11,0 42 23 E - 8
22.03.2019 08:00:00 14,0 11,0 34 18 ENE - 8
22.03.2019 07:00:00 13,0 13,0 31 17 ENE 1022,7 7
22.03.2019 06:00:00 13,0 13,0 31 17 ENE - 7
22.03.2019 05:00:00 13,0 13,0 34 18 ENE - 8
22.03.2019 04:00:00 13,2 13,2 28 15 ENE 1021,6 7
22.03.2019 03:00:00 14,0 14,0 34 18 ENE - 7
22.03.2019 02:00:00 14,0 14,0 35 19 ENE - 10
22.03.2019 01:00:00 13,8 13,8 37 20 ENE 1022,3 10
22.03.2019 00:00:00 14,0 14,0 34 18 ENE - 10
21.03.2019 23:00:00 14,0 14,0 39 21 ENE - 10
21.03.2019 22:00:00 13,8 13,2 37 20 ENE 1021,6 10
21.03.2019 21:00:00 14,0 13,0 35 19 ENE - 10
21.03.2019 20:00:00 14,0 13,0 35 19 ENE - 9
21.03.2019 19:00:00 14,0 12,2 41 22 ENE 1019,8 9
21.03.2019 18:00:00 14,0 12,0 46 25 ENE - 9
21.03.2019 17:00:00 14,0 12,0 42 23 ENE - 9
21.03.2019 16:00:00 14,4 12,1 46 25 ENE 1019,6 8
21.03.2019 15:00:00 15,0 12,0 44 24 ENE - 9
21.03.2019 14:00:00 15,0 12,0 42 23 ENE - 8
21.03.2019 13:00:00 15,0 11,8 41 22 ENE 1020,9 8
21.03.2019 12:00:00 15,0 11,0 44 24 ENE - 8
21.03.2019 11:00:00 15,0 11,0 44 24 ENE - 7
21.03.2019 10:00:00 14,8 11,4 44 24 E 1020,7 8
21.03.2019 09:00:00 13,0 11,0 39 21 E - 8
21.03.2019 08:00:00 13,0 10,0 37 20 E - 7
21.03.2019 07:00:00 12,6 9,8 42 23 E 1020,0 7
21.03.2019 06:00:00 13,0 10,0 37 20 E - 7
21.03.2019 05:00:00 13,0 11,0 37 20 ENE - 10
21.03.2019 04:00:00 12,2 10,6 37 20 E 1020,1 10
21.03.2019 03:00:00 13,0 12,0 41 22 ENE - 10
21.03.2019 02:00:00 13,0 11,0 37 20 ENE - 10
21.03.2019 01:00:00 12,6 11,8 39 21 ENE 1020,5 10
21.03.2019 00:00:00 13,0 12,0 37 20 ENE - 10
20.03.2019 23:00:00 13,0 12,0 34 18 ENE - 10
20.03.2019 22:00:00 12,8 12,5 24 13 ENE 1020,8 10
20.03.2019 21:00:00 13,0 13,0 29 16 ENE - 8
20.03.2019 20:00:00 13,0 13,0 24 13 ENE - 8
20.03.2019 19:00:00 12,8 12,2 22 12 ENE 1019,7 8
20.03.2019 18:00:00 13,0 12,0 29 16 ENE - 8
20.03.2019 17:00:00 13,0 13,0 34 18 ENE - 8
20.03.2019 16:00:00 13,6 12,5 31 17 ENE 1019,6 8
20.03.2019 15:00:00 14,0 12,0 39 21 ENE - 8
20.03.2019 14:00:00 14,0 13,0 41 22 ENE - 8
20.03.2019 13:00:00 14,0 12,6 41 22 E 1019,8 8
20.03.2019 12:00:00 14,0 13,0 41 22 ENE - 7
20.03.2019 11:00:00 14,0 13,0 39 21 ENE - 7
20.03.2019 10:00:00 14,0 13,1 28 15 E 1019,6 7
20.03.2019 09:00:00 14,0 12,0 39 21 ENE - 7
20.03.2019 08:00:00 13,0 13,0 35 19 E - 7
20.03.2019 07:00:00 12,4 12,1 24 13 E 1018,5 7
20.03.2019 06:00:00 12,0 12,0 22 12 E - 8
20.03.2019 05:00:00 12,0 12,0 18 10 ESE - 8
20.03.2019 04:00:00 12,4 12,4 13 7 ESE 1017,9 8
20.03.2019 03:00:00 12,0 12,0 15 8 E - 8
20.03.2019 02:00:00 13,0 13,0 18 10 E - 8
20.03.2019 01:00:00 13,0 12,2 15 8 E 1018,2 8
20.03.2019 00:00:00 13,0 11,0 13 7 E - 7
19.03.2019 23:00:00 12,0 12,0 9 5 E - 10
19.03.2019 22:00:00 13,0 12,7 9 5 E 1017,5 10
19.03.2019 21:00:00 13,0 13,0 9 5 ENE - 10
19.03.2019 20:00:00 12,0 12,0 15 8 E - 10
19.03.2019 19:00:00 12,8 12,8 15 8 ESE 1016,3 10
19.03.2019 18:00:00 13,0 13,0 24 13 E - 7
19.03.2019 17:00:00 14,0 14,0 21 11 E - 10
19.03.2019 16:00:00 14,0 12,4 26 14 E 1015,5 10
19.03.2019 15:00:00 15,0 12,0 24 13 E - 10
19.03.2019 14:00:00 15,0 11,0 28 15 E - 10
19.03.2019 13:00:00 15,6 12,2 29 16 E 1015,5 15
19.03.2019 12:00:00 17,0 10,0 24 13 E - 10
19.03.2019 11:00:00 17,0 13,0 15 8 E - 10
19.03.2019 10:00:00 16,0 11,2 5 3 E 1015,8 15
19.03.2019 09:00:00 13,0 9,0 5 3 W - 10
19.03.2019 08:00:00 9,0 8,0 8 4 WSW - 10
19.03.2019 07:00:00 3,4 3,4 4 2 W 1015,5 10

tt = temperature
td = dewpoint
ff = wind speed
dd = wind direction
ppp = reduced air pressure
vv = visibility

Next stations